QPF
0.00 0.00 0.00 0.00 0.00 0.00 0.00 0.00 0.00 0.00 0.00 0.00 0.00 0.00 0.00 0.00 0.00 0.00 0.00 0.00 0.00 0.00 0.00 0.00 0.00 0.00 0.00 0.00 0.00 0.00 0.00 0.00 0.00 0.00 0.00 0.00 0.00 0.00 0.00 0.00 0.02 0.08 0.11 0.09 0.01
0.00 0.00 0.00 0.00 0.00 0.00 0.00 0.00 0.00 0.00 0.00 0.00 0.00 0.00 0.00 0.00 0.00 0.00 0.00 0.00 0.00 0.00 0.00 0.00 0.00 0.00 0.00 0.00 0.00 0.00 0.00 0.00 0.00 0.00 0.00 0.00 0.00 0.00 0.00 0.00 0.00 0.00 0.00 0.05 0.01
0.00 0.00 0.00 0.00 0.00 0.00 0.00 0.00 0.00 0.00 0.00 0.00 0.00 0.00 0.00 0.00 0.00 0.00 0.00 0.00 0.00 0.00 0.00 0.00 0.00 0.00 0.00 0.00 0.00 0.00 0.00 0.00 0.00 0.00 0.00 0.00 0.00 0.00 0.00 0.00 0.00 0.00 0.00 0.01 0.00
0.00 0.00 0.00 0.00 0.00 0.00 0.00 0.00 0.00 0.00 0.00 0.00 0.00 0.00 0.00 0.00 0.00 0.00 0.00 0.00 0.00 0.00 0.00 0.00 0.00 0.00 0.00 0.00 0.00 0.00 0.00 0.00 0.00 0.00 0.00 0.00 0.00 0.00 0.00 0.00 0.00 0.00 0.00 0.00 0.00
0.00 0.00 0.00 0.00 0.00 0.00 0.00 0.00 0.00 0.00 0.00 0.00 0.00 0.00 0.00 0.00 0.00 0.00 0.00 0.00 0.00 0.00 0.00 0.00 0.00 0.00 0.00 0.00 0.00 0.00 0.00 0.00 0.00 0.00 0.00 0.00 0.00 0.00 0.00 0.00 0.00 0.00 0.00 0.00 0.00
0.00 0.00 0.00 0.00 0.00 0.00 0.00 0.00 0.00 0.00 0.00 0.00 0.00 0.00 0.00 0.00 0.00 0.00 0.00 0.00 0.00 0.00 0.00 0.00 0.00 0.00 0.00 0.00 0.00 0.00 0.00 0.00 0.00 0.00 0.00 0.00 0.00 0.00 0.00 0.00 0.00 0.00 0.00 0.00 0.00
0.00 0.00 0.00 0.00 0.00 0.00 0.00 0.00 0.00 0.00 0.00 0.00 0.00 0.00 0.00 0.00 0.00 0.00 0.00 0.00 0.00 0.00 0.00 0.00 0.00 0.00 0.00 0.00 0.00 0.00 0.00 0.00 0.00 0.00 0.00 0.00 0.00 0.00 0.00 0.00 0.00 0.00 0.00 0.00 0.00
0.00 0.00 0.00 0.00 0.00 0.00 0.00 0.00 0.00 0.00 0.00 0.00 0.00 0.00 0.00 0.00 0.00 0.00 0.00 0.00 0.00 0.00 0.00 0.00 0.00 0.00 0.00 0.00 0.00 0.00 0.00 0.00 0.00 0.00 0.00 0.00 0.00 0.00 0.00 0.00 0.00 0.00 0.00 0.00 0.00
0.00 0.00 0.00 0.00 0.00 0.00 0.00 0.00 0.00 0.00 0.00 0.00 0.00 0.00 0.00 0.00 0.00 0.00 0.00 0.00 0.00 0.00 0.00 0.00 0.00 0.00 0.00 0.00 0.00 0.00 0.00 0.00 0.00 0.00 0.00 0.00 0.00 0.00 0.00 0.00 0.00 0.00 0.00 0.00 0.00
0.00 0.00 0.00 0.00 0.00 0.00 0.00 0.00 0.00 0.00 0.00 0.00 0.00 0.00 0.00 0.00 0.00 0.00 0.00 0.00 0.00 0.00 0.00 0.00 0.00 0.00 0.00 0.00 0.00 0.00 0.00 0.00 0.00 0.00 0.00 0.00 0.00 0.00 0.00 0.00 0.00 0.00 0.00 0.00 0.00
0.00 0.00 0.00 0.00 0.00 0.00 0.00 0.00 0.00 0.00 0.00 0.00 0.00 0.00 0.00 0.00 0.00 0.00 0.00 0.00 0.00 0.00 0.00 0.00 0.00 0.00 0.00 0.00 0.00 0.00 0.00 0.00 0.00 0.00 0.00 0.00 0.00 0.00 0.00 0.00 0.00 0.00 0.00 0.00 0.00
0.00 0.00 0.00 0.00 0.00 0.00 0.00 0.00 0.00 0.00 0.00 0.00 0.00 0.00 0.00 0.00 0.00 0.00 0.00 0.00 0.00 0.00 0.00 0.00 0.00 0.00 0.00 0.00 0.00 0.00 0.00 0.00 0.00 0.00 0.00 0.00 0.00 0.00 0.00 0.00 0.00 0.00 0.00 0.00 0.00
0.00 0.00 0.00 0.00 0.00 0.00 0.00 0.00 0.00 0.00 0.00 0.00 0.00 0.00 0.00 0.00 0.00 0.00 0.00 0.00 0.00 0.00 0.00 0.00 0.00 0.00 0.00 0.00 0.00 0.00 0.00 0.00 0.00 0.00 0.00 0.00 0.00 0.00 0.00 0.00 0.00 0.00 0.00 0.00 0.00
0.00 0.00 0.00 0.00 0.00 0.00 0.00 0.00 0.00 0.00 0.00 0.00 0.00 0.00 0.00 0.00 0.00 0.00 0.00 0.00 0.00 0.00 0.00 0.00 0.00 0.00 0.00 0.00 0.00 0.00 0.00 0.00 0.00 0.00 0.00 0.00 0.00 0.00 0.00 0.00 0.00 0.00 0.00 0.00 0.00
0.00 0.00 0.00 0.00 0.00 0.00 0.00 0.00 0.00 0.00 0.00 0.00 0.00 0.00 0.00 0.00 0.00 0.00 0.00 0.00 0.00 0.00 0.00 0.00 0.00 0.00 0.00 0.00 0.00 0.00 0.00 0.00 0.00 0.00 0.00 0.00 0.00 0.00 0.00 0.00 0.00 0.00 0.00 0.00 0.00
0.00 0.00 0.00 0.00 0.00 0.00 0.00 0.00 0.00 0.00 0.00 0.00 0.00 0.00 0.00 0.00 0.00 0.00 0.00 0.00 0.00 0.00 0.00 0.00 0.00 0.00 0.00 0.00 0.00 0.00 0.00 0.00 0.00 0.00 0.00 0.00 0.00 0.00 0.00 0.00 0.00 0.00 0.00 0.00 0.00
0.00 0.00 0.00 0.00 0.00 0.00 0.00 0.00 0.00 0.00 0.00 0.00 0.00 0.00 0.00 0.00 0.00 0.00 0.00 0.01 0.00 0.02 0.01 0.00 0.00 0.00 0.00 0.00 0.00 0.00 0.00 0.00 0.00 0.00 0.00 0.00 0.00 0.00 0.00 0.00 0.00 0.00 0.00 0.00 0.00
0.00 0.00 0.00 0.00 0.00 0.00 0.00 0.00 0.00 0.00 0.00 0.00 0.00 0.00 0.00 0.00 0.00 0.00 0.00 0.01 0.01 0.01 0.05 0.01 0.00 0.00 0.00 0.00 0.00 0.00 0.00 0.00 0.00 0.00 0.00 0.00 0.00 0.00 0.00 0.00 0.00 0.00 0.00 0.00 0.00
0.00 0.00 0.00 0.00 0.00 0.00 0.00 0.00 0.00 0.00 0.00 0.00 0.00 0.00 0.00 0.00 0.00 0.00 0.00 0.00 0.00 0.00 0.04 0.05 0.00 0.00 0.00 0.00 0.00 0.00 0.00 0.00 0.00 0.00 0.00 0.00 0.00 0.00 0.00 0.00 0.00 0.00 0.00 0.00 0.00
0.00 0.00 0.00 0.00 0.00 0.00 0.00 0.00 0.00 0.00 0.00 0.00 0.00 0.00 0.00 0.00 0.00 0.00 0.00 0.00 0.00 0.00 0.00 0.01 0.00 0.00 0.00 0.00 0.00 0.00 0.00 0.00 0.00 0.00 0.00 0.00 0.00 0.00 0.00 0.00 0.00 0.00 0.00 0.00 0.00
0.00 0.00 0.00 0.00 0.00 0.00 0.00 0.00 0.00 0.00 0.00 0.00 0.00 0.00 0.00 0.00 0.00 0.00 0.00 0.00 0.00 0.00 0.00 0.00 0.00 0.00 0.00 0.00 0.00 0.00 0.00 0.00 0.00 0.00 0.00 0.00 0.00 0.00 0.00 0.00 0.00 0.00 0.00 0.00 0.00
0.00 0.00 0.00 0.00 0.00 0.00 0.00 0.00 0.00 0.00 0.00 0.00 0.00 0.00 0.00 0.00 0.00 0.00 0.00 0.00 0.00 0.00 0.00 0.00 0.01 0.00 0.00 0.00 0.00 0.00 0.00 0.00 0.00 0.00 0.00 0.00 0.00 0.00 0.00 0.00 0.00 0.00 0.00 0.00 0.00
0.00 0.00 0.00 0.00 0.00 0.00 0.00 0.00 0.00 0.00 0.00 0.00 0.00 0.00 0.00 0.00 0.00 0.00 0.00 0.00 0.00 0.00 0.00 0.00 0.00 0.00 0.01 0.06 0.04 0.00 0.00 0.00 0.00 0.00 0.00 0.00 0.00 0.00 0.00 0.00 0.00 0.00 0.00 0.00 0.00
0.00 0.00 0.00 0.00 0.00 0.00 0.00 0.00 0.00 0.00 0.00 0.00 0.00 0.00 0.00 0.00 0.00 0.00 0.00 0.00 0.00 0.00 0.00 0.00 0.00 0.01 0.02 0.11 0.11 0.04 0.01 0.00 0.00 0.00 0.00 0.00 0.01 0.01 0.00 0.00 0.00 0.00 0.00 0.00 0.00
0.00 0.00 0.00 0.00 0.00 0.00 0.00 0.00 0.00 0.00 0.00 0.00 0.00 0.00 0.00 0.00 0.00 0.00 0.00 0.00 0.00 0.00 0.00 0.00 0.00 0.00 0.00 0.00 0.01 0.01 0.02 0.01 0.00 0.00 0.00 0.00 0.02 0.01 0.00 0.00 0.00 0.00 0.00 0.00 0.00
0.00 0.00 0.00 0.00 0.00 0.00 0.00 0.00 0.00 0.00 0.00 0.00 0.00 0.00 0.00 0.00 0.00 0.00 0.00 0.00 0.00 0.00 0.00 0.00 0.00 0.00 0.00 0.00 0.00 0.00 0.00 0.00 0.01 0.00 0.00 0.00 0.06 0.11 0.00 0.00 0.00 0.00 0.00 0.00 0.00
0.00 0.00 0.00 0.00 0.00 0.00 0.00 0.00 0.00 0.00 0.00 0.00 0.00 0.00 0.00 0.00 0.00 0.00 0.00 0.00 0.00 0.00 0.00 0.00 0.00 0.00 0.00 0.00 0.00 0.00 0.00 0.00 0.00 0.02 0.02 0.00 0.03 0.17 0.06 0.00 0.00 0.00 0.00 0.00 0.00
MSLP
1020.72 1020.01 1019.23 1018.59 1018.07 1017.55 1016.82 1016.34 1015.93 1015.47 1014.94 1014.44 1013.96 1013.51 1013.04 1012.69 1012.23 1011.64 1010.30 1007.43 1007.21 1006.82 1007.11 1007.14 1007.44 1007.40 1007.61 1007.45 1007.18 1006.91 1007.46 1006.51 1005.54 1004.41 1002.34 1000.46 1000.70 998.94 999.02 1000.16 1001.98 1003.75 1005.20 1006.26 1005.73
1020.35 1019.58 1018.89 1018.43 1017.87 1017.23 1016.63 1016.19 1015.67 1015.10 1014.59 1014.13 1013.67 1013.28 1012.86 1012.43 1011.70 1009.83 1006.43 1006.17 1006.30 1006.47 1007.26 1007.36 1007.42 1007.51 1007.65 1006.97 1007.06 1006.58 1006.28 1005.26 1004.56 1003.48 1002.03 1000.38 1000.49 999.87 999.35 1000.48 1001.91 1002.57 1003.37 1005.96 1005.74
1020.33 1019.85 1019.14 1018.42 1017.68 1016.93 1016.36 1015.91 1015.35 1014.79 1014.28 1013.73 1013.32 1013.00 1012.65 1012.27 1010.83 1006.89 1005.28 1005.31 1005.42 1005.97 1006.44 1006.67 1007.00 1007.23 1007.26 1006.81 1006.30 1005.66 1004.84 1004.59 1003.42 1002.79 1001.88 1000.71 1000.23 1000.07 999.27 1000.43 1001.15 1002.28 1003.52 1004.79 1006.15
1020.49 1019.84 1019.14 1018.37 1017.55 1016.84 1016.19 1015.57 1015.00 1014.43 1013.83 1013.39 1013.04 1012.78 1012.49 1012.12 1009.61 1005.63 1005.51 1005.14 1004.88 1005.56 1006.40 1006.59 1006.71 1006.84 1006.83 1006.20 1005.73 1005.22 1004.24 1003.90 1002.94 1002.22 1001.50 1000.96 1000.26 1000.50 999.22 999.31 1000.39 1001.28 1002.37 1003.96 1005.36
1020.56 1019.84 1019.12 1018.32 1017.50 1016.67 1015.87 1015.19 1014.57 1014.03 1013.49 1013.17 1012.92 1012.70 1012.58 1011.67 1008.66 1005.62 1005.93 1005.76 1005.65 1005.93 1006.03 1006.28 1006.34 1006.45 1005.74 1005.35 1005.07 1004.07 1003.79 1003.16 1002.42 1001.78 1000.80 1000.69 1000.24 1000.50 1000.12 999.63 1000.18 1001.47 1002.64 1003.35 1004.41
1020.74 1019.96 1019.16 1018.28 1017.34 1016.36 1015.46 1014.77 1014.08 1013.48 1013.20 1013.03 1012.89 1012.89 1012.57 1010.83 1006.77 1005.97 1005.79 1006.19 1005.82 1005.82 1006.03 1006.14 1005.61 1005.31 1005.19 1004.30 1003.80 1003.25 1002.97 1002.32 1001.67 1001.13 1000.47 1000.45 1000.04 1000.03 1000.09 999.49 1000.64 1001.31 1002.39 1003.17 1003.89
1020.85 1019.97 1019.12 1018.18 1017.12 1016.10 1015.11 1014.27 1013.40 1012.82 1012.79 1012.67 1012.72 1012.86 1011.99 1009.74 1006.87 1006.46 1006.01 1005.68 1005.30 1005.56 1005.42 1005.20 1005.38 1005.25 1004.24 1003.83 1002.93 1002.81 1002.61 1001.92 1000.94 1000.50 1000.15 1000.15 999.84 999.67 999.53 999.16 1000.42 1001.19 1002.03 1002.77 1003.51
1020.83 1019.85 1018.84 1017.79 1016.63 1015.83 1014.68 1013.77 1012.81 1012.04 1012.08 1012.24 1012.38 1012.37 1010.69 1007.67 1007.03 1007.02 1006.29 1005.92 1005.44 1005.05 1004.45 1004.34 1004.27 1004.31 1003.99 1003.69 1003.00 1002.63 1002.42 1001.57 999.88 1000.53 999.63 1000.13 999.73 999.37 999.12 999.16 1000.46 1001.10 1001.69 1002.53 1003.25
1020.60 1019.62 1018.64 1017.61 1016.41 1015.68 1014.63 1013.17 1012.07 1011.53 1011.52 1011.84 1012.12 1011.68 1009.48 1007.28 1007.27 1007.16 1006.32 1005.94 1005.37 1004.81 1004.25 1003.62 1003.40 1003.53 1003.78 1003.67 1003.67 1002.33 1001.19 1000.66 1000.62 999.78 999.77 999.76 999.69 998.99 999.07 999.13 1000.10 1000.84 1001.25 1002.07 1002.90
1020.58 1019.48 1018.48 1017.46 1016.20 1015.61 1014.57 1012.67 1011.43 1011.40 1011.13 1011.28 1011.00 1010.91 1009.02 1008.59 1008.06 1007.39 1006.71 1006.22 1005.42 1004.86 1004.20 1003.45 1003.40 1003.20 1003.13 1002.80 1001.31 1001.09 1001.10 1000.80 1000.08 999.31 999.84 999.70 999.14 998.98 998.86 998.78 999.35 1000.52 1000.92 1001.53 1002.33
1020.58 1019.36 1018.36 1017.46 1016.08 1015.23 1014.83 1012.74 1012.79 1012.52 1012.34 1012.32 1011.39 1010.56 1009.47 1009.06 1008.46 1007.99 1007.48 1006.76 1005.93 1005.69 1004.65 1004.11 1003.97 1002.45 1001.00 1000.80 1000.55 1000.89 1000.90 1000.26 999.38 999.25 999.37 999.13 999.09 998.58 998.51 998.60 998.81 999.56 1000.30 1000.82 1001.32
1020.54 1019.52 1018.16 1017.41 1016.30 1015.27 1015.06 1015.00 1015.59 1015.97 1014.24 1011.20 1010.76 1009.70 1009.45 1009.09 1008.33 1008.50 1008.09 1008.13 1007.37 1006.11 1005.42 1004.30 1002.71 1000.76 1000.39 1000.60 1000.41 1000.38 1000.29 999.55 999.04 998.70 998.54 998.31 998.21 997.69 997.76 997.49 997.93 998.55 999.35 999.96 1000.59
1020.65 1019.56 1018.34 1017.15 1016.12 1015.64 1015.55 1015.93 1015.65 1015.59 1015.09 1011.64 1010.40 1009.70 1009.32 1009.02 1008.86 1008.95 1008.84 1008.12 1006.89 1005.74 1004.97 1004.08 1001.60 1001.01 1000.60 1000.16 999.77 999.57 999.56 999.10 998.85 998.24 997.79 997.87 997.85 997.52 996.87 996.75 997.02 997.43 998.11 998.74 999.41
1020.58 1019.77 1018.75 1017.57 1016.37 1016.13 1015.92 1015.82 1015.53 1015.44 1014.93 1012.22 1011.04 1010.06 1009.52 1009.57 1009.43 1009.72 1009.40 1007.99 1005.70 1004.64 1004.27 1002.93 1001.47 1000.72 999.77 999.19 999.23 998.95 998.51 998.78 998.52 998.60 998.35 997.49 997.62 996.75 996.37 996.31 996.46 996.36 996.92 997.91 998.63
1020.70 1019.48 1018.79 1017.83 1017.69 1016.88 1016.58 1015.61 1015.40 1015.52 1015.40 1013.36 1012.29 1010.96 1010.49 1011.17 1010.86 1010.16 1009.80 1007.07 1006.65 1004.70 1003.51 1001.80 1000.95 999.91 999.17 998.05 998.62 997.62 998.44 998.42 998.40 998.29 998.44 997.83 997.78 996.23 995.98 996.25 995.94 995.65 995.87 996.80 997.75
1020.67 1019.62 1018.73 1017.44 1017.26 1016.46 1015.70 1015.17 1015.27 1015.99 1015.81 1014.46 1013.86 1012.14 1011.29 1011.44 1011.25 1010.70 1010.76 1008.62 1007.85 1006.11 1003.66 1002.66 1000.80 1000.29 998.80 998.15 997.89 997.61 998.33 998.28 998.13 998.16 998.31 997.76 997.70 996.52 995.52 995.23 995.27 995.18 995.09 995.68 996.86
1020.66 1019.42 1018.52 1017.68 1018.00 1016.27 1015.32 1015.35 1016.33 1017.61 1017.45 1016.08 1014.57 1013.41 1012.57 1012.53 1011.98 1011.74 1011.96 1011.90 1012.78 1010.21 1007.57 1004.68 1000.83 999.48 998.64 998.28 997.53 997.76 998.17 998.48 998.57 998.01 997.72 997.14 997.13 996.33 995.33 995.21 995.35 994.85 994.41 994.96 996.04
1020.56 1019.22 1018.24 1017.84 1016.89 1016.04 1015.62 1016.64 1018.30 1019.15 1018.45 1017.46 1015.97 1014.91 1014.22 1013.89 1013.45 1013.25 1013.89 1013.61 1013.65 1013.05 1011.15 1007.93 1003.45 1001.23 1000.21 998.89 997.88 997.50 997.74 998.06 998.42 998.16 997.73 996.14 996.14 995.99 995.58 995.36 995.06 994.50 994.20 994.50 995.86
1020.38 1019.38 1018.90 1018.14 1016.98 1016.23 1016.93 1018.27 1019.90 1019.46 1018.86 1017.73 1016.67 1016.17 1015.80 1015.58 1015.13 1014.51 1014.85 1014.80 1014.48 1014.20 1013.81 1011.01 1006.54 1003.03 1001.49 1000.23 999.28 997.84 997.50 997.42 998.54 998.40 998.05 997.10 996.11 995.98 995.82 996.24 996.36 996.52 995.76 996.20 996.72
1021.19 1020.33 1019.81 1018.60 1017.62 1017.71 1018.50 1019.76 1020.04 1019.67 1019.08 1018.48 1017.91 1017.73 1017.25 1016.72 1016.19 1015.61 1015.50 1015.44 1015.11 1015.12 1014.94 1013.85 1010.87 1006.05 1003.46 1000.88 1000.10 1001.04 999.12 998.98 999.07 999.40 998.98 998.15 997.26 997.16 997.16 997.79 997.88 998.53 998.91 998.83 999.12
1021.16 1020.87 1020.54 1019.07 1018.26 1019.16 1020.37 1020.58 1020.22 1019.93 1019.47 1019.10 1018.76 1018.63 1018.72 1018.17 1017.38 1016.72 1016.53 1016.15 1015.70 1015.36 1015.31 1015.19 1013.79 1008.90 1006.23 1005.88 1005.21 1004.14 1005.11 1003.64 1001.56 1000.42 1000.17 999.89 998.52 997.92 997.15 997.65 998.62 999.66 1000.57 1001.32 1001.58
1022.91 1022.25 1021.12 1020.02 1020.51 1021.08 1021.47 1020.83 1020.28 1020.13 1019.88 1019.78 1019.19 1019.26 1019.38 1019.04 1018.42 1017.77 1017.23 1017.09 1016.56 1016.27 1016.02 1015.86 1015.33 1012.84 1009.83 1008.88 1009.10 1008.57 1009.28 1008.34 1006.41 1003.89 1002.35 1000.68 1000.01 997.82 998.42 999.56 999.79 1000.61 1001.59 1002.62 1003.37
1024.51 1023.09 1021.61 1021.20 1022.44 1022.97 1022.13 1021.42 1020.74 1020.38 1020.36 1020.14 1019.77 1019.95 1020.03 1019.86 1019.50 1018.52 1017.91 1017.30 1017.28 1017.08 1017.02 1016.87 1016.24 1014.21 1010.94 1010.69 1010.91 1011.55 1011.34 1011.05 1009.25 1007.08 1005.22 1003.14 1001.48 1000.21 999.01 1000.34 1001.35 1002.01 1002.82 1003.31 1004.00
1025.18 1024.63 1023.96 1023.57 1023.86 1023.74 1022.89 1022.19 1021.39 1020.83 1020.63 1020.62 1020.37 1020.36 1020.39 1020.34 1020.04 1019.29 1018.80 1018.25 1018.21 1017.96 1017.51 1017.57 1017.54 1017.47 1016.71 1015.96 1015.09 1013.89 1013.25 1012.65 1011.51 1009.50 1007.99 1005.96 1003.67 1002.11 1002.08 1001.22 1001.93 1002.77 1003.81 1004.48 1004.88
1026.20 1026.49 1026.49 1026.07 1025.32 1024.70 1023.48 1022.92 1022.27 1021.57 1021.25 1020.92 1020.81 1020.94 1020.81 1020.54 1020.20 1020.14 1019.78 1018.99 1018.71 1018.27 1018.22 1018.42 1018.02 1017.55 1016.82 1015.82 1014.58 1013.62 1012.94 1012.62 1012.24 1011.14 1009.78 1007.64 1006.28 1005.58 1005.28 1003.77 1003.37 1003.41 1004.37 1005.27 1005.82
1027.66 1027.79 1027.40 1027.00 1025.94 1025.19 1024.37 1023.90 1023.12 1022.41 1022.24 1021.71 1021.60 1021.27 1021.08 1020.93 1020.83 1020.36 1020.19 1020.02 1019.61 1018.51 1018.62 1018.57 1018.06 1017.57 1016.72 1015.60 1014.46 1013.45 1012.51 1011.90 1011.64 1011.37 1010.05 1008.85 1008.27 1007.69 1005.76 1005.03 1004.79 1004.93 1005.49 1006.48 1007.06
1028.71 1028.34 1028.32 1027.62 1026.78 1026.12 1025.38 1024.59 1023.79 1023.24 1022.80 1022.53 1021.96 1021.53 1021.19 1020.91 1020.71 1020.41 1020.14 1019.65 1019.15 1018.78 1018.32 1018.49 1018.05 1017.71 1016.58 1015.87 1014.75 1013.31 1011.60 1011.24 1011.34 1011.89 1011.94 1010.96 1010.32 1009.78 1008.80 1007.11 1006.76 1006.73 1006.97 1007.67 1008.25
Thickness
5618 5623 5629 5632 5634 5636 5640 5642 5642 5644 5646 5648 5650 5652 5656 5659 5662 5668 5680 5701 5702 5707 5707 5707 5704 5702 5701 5699 5704 5708 5675 5681 5697 5708 5739 5772 5760 5793 5804 5782 5761 5747 5738 5744 5759
5620 5625 5629 5630 5632 5635 5637 5638 5640 5643 5645 5646 5647 5649 5651 5654 5659 5672 5703 5705 5703 5701 5695 5692 5690 5689 5681 5693 5690 5688 5678 5693 5717 5728 5739 5762 5758 5766 5776 5764 5751 5757 5765 5749 5757
5618 5619 5622 5625 5629 5632 5634 5635 5637 5639 5641 5644 5645 5645 5647 5649 5660 5687 5703 5703 5702 5696 5694 5691 5688 5683 5673 5683 5687 5690 5685 5703 5719 5734 5744 5753 5753 5764 5765 5751 5752 5754 5760 5755 5746
5613 5616 5618 5622 5625 5628 5630 5632 5634 5636 5638 5640 5640 5641 5641 5643 5656 5690 5693 5696 5698 5691 5683 5678 5676 5668 5670 5670 5687 5674 5696 5701 5717 5729 5735 5738 5749 5744 5760 5768 5764 5763 5770 5758 5747
5609 5611 5614 5616 5620 5623 5627 5629 5631 5632 5634 5634 5634 5634 5634 5639 5650 5682 5681 5682 5683 5678 5672 5667 5661 5660 5662 5677 5680 5682 5692 5701 5715 5722 5736 5741 5740 5739 5747 5764 5766 5760 5761 5757 5752
5602 5605 5608 5611 5615 5619 5623 5626 5628 5629 5628 5627 5626 5623 5623 5625 5667 5671 5671 5667 5668 5665 5660 5658 5662 5666 5660 5673 5676 5691 5691 5699 5710 5717 5729 5727 5735 5742 5747 5759 5751 5751 5752 5753 5750
5596 5599 5602 5606 5610 5615 5620 5623 5626 5627 5624 5622 5619 5615 5618 5626 5655 5656 5657 5658 5661 5655 5651 5657 5656 5649 5664 5662 5684 5684 5672 5688 5703 5715 5714 5726 5714 5723 5750 5759 5744 5744 5751 5751 5750
5590 5594 5598 5603 5608 5611 5617 5620 5624 5626 5622 5617 5613 5609 5610 5639 5640 5637 5639 5639 5645 5648 5651 5654 5654 5649 5650 5659 5665 5662 5664 5661 5708 5704 5721 5709 5694 5723 5744 5749 5731 5735 5746 5745 5742
5586 5590 5593 5598 5604 5606 5611 5618 5622 5622 5618 5610 5605 5602 5607 5628 5618 5618 5620 5618 5625 5631 5639 5649 5645 5639 5639 5630 5626 5647 5647 5660 5676 5705 5705 5700 5696 5726 5735 5742 5728 5731 5739 5742 5739
5580 5585 5589 5592 5598 5600 5604 5615 5618 5613 5611 5604 5603 5593 5603 5596 5598 5597 5599 5600 5604 5607 5614 5623 5621 5612 5619 5620 5617 5637 5641 5648 5662 5697 5693 5687 5698 5718 5728 5735 5731 5725 5731 5739 5737
5575 5580 5584 5586 5592 5595 5595 5606 5595 5590 5586 5579 5580 5579 5582 5582 5579 5570 5569 5571 5573 5574 5583 5595 5578 5590 5627 5640 5651 5647 5645 5649 5672 5693 5686 5689 5692 5709 5719 5721 5724 5722 5725 5734 5738
5570 5573 5579 5579 5583 5585 5582 5573 5561 5554 5547 5577 5575 5573 5568 5563 5554 5543 5542 5522 5521 5531 5547 5561 5560 5618 5636 5632 5633 5635 5637 5647 5669 5691 5686 5691 5688 5712 5715 5726 5723 5726 5722 5730 5737
5563 5567 5571 5574 5576 5573 5568 5558 5553 5545 5531 5559 5562 5555 5548 5546 5528 5515 5504 5500 5505 5510 5522 5528 5576 5611 5604 5612 5620 5626 5629 5643 5653 5678 5690 5687 5682 5695 5714 5726 5730 5729 5729 5733 5737
5558 5558 5561 5565 5566 5561 5556 5550 5544 5536 5514 5543 5538 5534 5533 5524 5508 5493 5488 5493 5516 5512 5514 5527 5572 5576 5593 5603 5617 5610 5645 5648 5654 5655 5642 5684 5657 5688 5706 5714 5718 5728 5727 5726 5731
5551 5554 5552 5553 5547 5546 5543 5542 5534 5523 5488 5525 5517 5519 5510 5491 5485 5483 5479 5502 5495 5509 5523 5533 5556 5568 5579 5605 5617 5625 5641 5643 5649 5652 5650 5662 5649 5676 5699 5692 5707 5725 5726 5729 5730
5544 5547 5547 5548 5544 5543 5541 5536 5526 5497 5482 5505 5496 5498 5497 5485 5477 5474 5466 5481 5483 5492 5522 5529 5554 5556 5583 5610 5620 5637 5628 5633 5641 5647 5622 5651 5645 5655 5679 5697 5714 5726 5730 5732 5729
5538 5541 5541 5540 5528 5536 5534 5525 5495 5430 5491 5483 5484 5487 5484 5469 5470 5463 5451 5436 5417 5440 5468 5501 5553 5573 5594 5592 5615 5617 5613 5597 5599 5608 5613 5660 5645 5655 5695 5706 5708 5723 5737 5736 5732
5532 5535 5534 5529 5528 5528 5522 5497 5430 5473 5465 5470 5472 5472 5464 5460 5457 5451 5434 5432 5431 5426 5431 5477 5521 5555 5570 5589 5603 5610 5613 5598 5584 5590 5622 5665 5635 5653 5695 5702 5708 5722 5737 5739 5733
5526 5525 5520 5519 5520 5518 5500 5445 5443 5461 5460 5459 5463 5449 5446 5441 5438 5438 5422 5423 5432 5432 5415 5451 5497 5539 5562 5575 5595 5608 5608 5630 5612 5624 5614 5628 5655 5672 5684 5685 5692 5696 5706 5707 5716
5511 5509 5505 5507 5505 5496 5471 5459 5458 5456 5452 5447 5435 5434 5420 5423 5421 5422 5418 5424 5426 5429 5427 5434 5451 5524 5546 5581 5587 5573 5607 5605 5608 5591 5594 5617 5630 5631 5655 5662 5674 5672 5670 5681 5685
5503 5494 5491 5495 5494 5470 5429 5448 5454 5448 5442 5434 5427 5422 5414 5409 5412 5417 5405 5421 5424 5424 5423 5417 5431 5491 5529 5527 5529 5543 5515 5550 5586 5601 5591 5590 5610 5646 5660 5666 5665 5661 5654 5658 5660
5481 5464 5481 5481 5457 5445 5417 5450 5450 5439 5434 5424 5425 5418 5407 5406 5405 5403 5407 5407 5416 5415 5403 5411 5410 5439 5484 5503 5498 5502 5484 5501 5531 5563 5583 5606 5599 5642 5641 5638 5650 5651 5646 5643 5641
5464 5465 5471 5465 5419 5411 5441 5444 5442 5432 5422 5416 5416 5410 5404 5396 5387 5400 5406 5411 5405 5407 5398 5397 5395 5423 5469 5473 5468 5456 5471 5478 5504 5535 5559 5573 5587 5616 5632 5625 5627 5627 5626 5630 5630
5453 5435 5438 5440 5431 5427 5430 5429 5425 5425 5419 5412 5409 5404 5395 5388 5391 5389 5389 5395 5392 5394 5407 5402 5384 5382 5390 5400 5415 5427 5444 5454 5476 5498 5511 5543 5573 5595 5597 5609 5612 5613 5609 5609 5613
5434 5419 5421 5398 5404 5414 5422 5418 5410 5406 5409 5407 5399 5392 5385 5375 5380 5372 5377 5381 5382 5389 5385 5382 5382 5391 5401 5416 5435 5447 5457 5456 5455 5482 5493 5523 5543 5543 5547 5574 5588 5599 5597 5594 5595
5410 5400 5402 5399 5407 5405 5405 5394 5398 5399 5392 5389 5382 5383 5379 5369 5370 5361 5364 5361 5360 5378 5369 5372 5373 5385 5395 5416 5433 5438 5453 5464 5469 5475 5500 5523 5528 5522 5551 5559 5562 5571 5573 5568 5570
5404 5403 5390 5396 5392 5387 5383 5387 5389 5385 5385 5379 5375 5371 5368 5371 5366 5364 5361 5364 5364 5360 5361 5360 5365 5371 5385 5401 5409 5415 5448 5462 5466 5447 5457 5481 5499 5495 5497 5527 5530 5538 5547 5547 5547